Flag for Russia Weather past 2 weeks in Astrakhan, Russia

Now
41 °F

Sunny.


Feels Like: 34 °F
Forecast: 28 / 35 °F
Wind: 13 mph from Northwest

Location: Astrakhan

Current Time: Dec 26, 2014 at 8:52:13 AM

Latest Report: Dec 26, 2014 at 8:30 AM


Visibility: 10 mi

Pressure: 29.95 "Hg

Humidity: 87%

Dew point: 37 °F

Location of AstrakhanLocation

Historic Weather in Astrakhan — Graph

°F

Astrakhan temperature yesterday

Maximum temperature yesterday: 48 °F (at 8:30 PM)
Minimum temperature yesterday: 34 °F (at 5:30 AM)
Average temperature yesterday: 40 °F

Past Weeks' High & Low Weather Summary

 TemperatureHumidityPressure
High48 °F (Dec 25, 8:30 PM)100% (Dec 11, 11:00 PM)30.51 "Hg (Dec 11, 11:00 PM)
Low19 °F (Dec 17, 6:30 AM)56% (Dec 23, 12:30 PM)29.56 "Hg (Dec 24, 11:30 AM)
Average35 °F88%30.15 "Hg
* Reported Dec 11 7:00 AM — Dec 26 7:30 AM, Astrakhan, Weather by CustomWeather, © 2014

Note: Actual official high and low records may vary slightly from our data, if they occured in-between our weather recording intervals... More about our weather records

Advertising

Astrakhan weather history for previous 24 hours

 ConditionsComfort  
Time TempWeatherWind HumidityBarometerVisibility
7:30 AM
Dec 26
41 °FClear.13 mph81%29.95 "Hg10 mi
7:00 AM41 °FClear.13 mph81%29.92 "Hg10 mi
6:30 AM41 °FClear.13 mph81%29.92 "Hg10 mi
5:30 AM43 °FClear.13 mph81%29.89 "Hg10 mi
5:00 AM43 °FClear.15 mph81%29.89 "Hg10 mi
4:30 AM43 °FClear.13 mph81%29.86 "Hg10 mi
4:00 AM45 °FClear.13 mph76%29.86 "Hg10 mi
3:30 AM43 °FPassing clouds.13 mph81%29.86 "HgN/A
3:00 AM43 °FPassing clouds.15 mph76%29.86 "HgN/A
2:30 AM45 °FPassing clouds.13 mph76%29.86 "HgN/A
2:00 AM45 °FClear.15 mph71%29.86 "Hg10 mi
1:30 AM45 °FClear.15 mph71%29.86 "Hg10 mi
1:00 AM46 °FMostly cloudy.13 mph71%29.86 "HgN/A
12:30 AM46 °FMostly cloudy.13 mph71%29.86 "HgN/A
12:00 AM46 °FClear.15 mph71%29.86 "Hg10 mi
11:30 PM
Dec 25
46 °FClear.15 mph71%29.86 "Hg10 mi
11:00 PM46 °FClear.17 mph71%29.86 "Hg10 mi
10:30 PM48 °FClear.15 mph66%29.86 "Hg10 mi
10:00 PM48 °FClear.17 mph71%29.86 "Hg10 mi
9:30 PM48 °FClear.17 mph71%29.86 "Hg10 mi
9:00 PM48 °FClear.20 mph71%29.86 "Hg10 mi
8:30 PM48 °FClear.20 mph71%29.86 "Hg10 mi
8:00 PM46 °FClear.20 mph82%29.86 "Hg10 mi
7:30 PM46 °FClear.17 mph76%29.86 "Hg10 mi
7:00 PM45 °FClear.17 mph81%29.86 "Hg10 mi
6:30 PM43 °FClear.15 mph87%29.89 "Hg10 mi
6:00 PM43 °FClear.13 mph87%29.89 "Hg10 mi
5:30 PM43 °FMostly cloudy.13 mph87%29.89 "HgN/A
5:00 PM43 °FMore clouds than sun.15 mph81%29.89 "HgN/A
4:30 PM43 °FMostly cloudy.15 mph81%29.89 "HgN/A
4:00 PM41 °FOvercast.15 mph87%29.89 "HgN/A
3:30 PM41 °FMostly cloudy.15 mph87%29.92 "HgN/A
3:00 PM41 °FMostly cloudy.15 mph87%29.92 "HgN/A
2:30 PM41 °FLight rain. Mostly cloudy.17 mph87%29.92 "HgN/A
2:00 PM41 °FLight rain. Clear.17 mph87%29.92 "HgN/A
1:30 PM41 °FSunny.15 mph81%29.92 "Hg10 mi
1:00 PM39 °FSunny.13 mph87%29.95 "Hg10 mi
12:30 PM39 °FLight rain. Clear.13 mph81%29.95 "HgN/A
12:00 PM39 °FSunny.15 mph81%29.98 "Hg10 mi
11:30 AM39 °FSunny.15 mph81%29.98 "Hg10 mi
11:00 AM39 °FSunny.10 mph81%29.98 "Hg10 mi
10:30 AM37 °FSunny.10 mph87%29.98 "Hg10 mi
10:00 AM37 °FSunny.13 mph81%29.98 "Hg10 mi
9:30 AM36 °FSunny.13 mph87%29.95 "Hg10 mi
9:00 AM36 °FSunny.10 mph87%29.95 "Hg10 mi
8:30 AM36 °FBroken clouds.10 mph87%29.95 "HgN/A
8:00 AM34 °FPartly cloudy.13 mph87%29.95 "HgN/A
Weather by CustomWeather, © 2014

See weather overviewHow to use our weather pages